Location: Berlin
(42.3812°N, 71.6370°W)
Time: 22:21:06
(UTC+00:00)

Okean 2 Rocket - Pass Details

Date: 15 November 2025
Orbit: 611 x 635 km, 82.5° (Epoch: 11 December)

Event Time Altitude Azimuth Distance (km) Brightness Sun altitude
Rises 10:10:20 0° 357° (N) 2,885 6.3 -16.2°
Reaches altitude 10° 10:12:37 10° 2° (N) 1,976 5.6 -15.8°
Maximum altitude 10:16:52 50° 79° (ENE) 784 4.0 -15.0°
Drops below altitude 10° 10:21:06 10° 155° (SSE) 1,966 6.2 -14.2°
Sets 10:23:22 0° 161° (SSE) 2,869 7.0 -13.8°
